Regional Weather Roundup
Issued by NWS San Angelo, TX

Home | Current Version | Previous Version | Text Only | Print | Product List | Glossary On
Versions: 1 2 3 4 5 6 7 8 9 10 11 12 13 14 15 16 17 18 19 20 21 22 23 24 25 26 27 28 29 30 31 32 33 34 35 36 37 38 39 40 41 42 43 44 45 46 47 48 49 50
000
ASUS44 KSJT 300110
RWRSJT
WEST CENTRAL TEXAS REGIONAL WEATHER ROUNDUP
NATIONAL WEATHER SERVICE SAN ANGELO TX
800 PM CDT FRI MAY 29 2015

NOTE: "FAIR" INDICATES FEW OR NO CLOUDS BELOW 12,000 FEET WITH NO
SIGNIFICANT WEATHER AND/OR OBSTRUCTIONS TO VISIBILITY.

TXZ049-054-064>066-071>073-076>078-098-099-113-114-127-128-139-140-
154-155-168>170-300200
...LOCATIONS ACROSS WEST CENTRAL TEXAS...

CITY           SKY/WX    TMP DP  RH WIND       PRES   REMARKS
SAN ANGELO     CLEAR     83  68  60 S5        29.93R
ABILENE        PTCLDY    83  69  62 SE7       29.94R
DYESS AFB      CLEAR     82  66  58 S8        29.93R
JUNCTION       MOCLDY    81  68  64 S10       29.95R
SWEETWATER     CLEAR     81  67  63 SE3       29.99R
BROWNWOOD      CLEAR     82  66  57 SE5       29.94R
COLEMAN        CLEAR     82  69  64 SE5       29.95R
SONORA         MOCLDY    81  68  65 S10       30.01R
OZONA          NOT AVBL
BRADY          PTCLDY    82  66  57 SE7       29.95R
$$

TEXAS PANHANDLE/OKLAHOMA PANHANDLE

CITY           SKY/WX    TMP DP  RH WIND       PRES   REMARKS
AMARILLO       MOCLDY    71  56  58 NE10      30.07R
BORGER         MOCLDY    75  56  51 NE7       30.06R
CANADIAN       CLEAR     76  61  57 NE7       30.01R
DALHART        CLOUDY    70  51  51 E6        30.11S
DUMAS          CLOUDY    69  54  59 NE7       30.10R
GUYMON         NOT AVBL
HEREFORD       MOCLDY    73  57  59 MISG      30.07R
PAMPA          PTCLDY    70  58  65 N6        30.07R
PERRYTON       PTCLDY    71  57  61 N3        30.05R
$$

SOUTHERN PANHANDLE/SOUTH PLAINS/ROLLING PLAINS

CITY           SKY/WX    TMP DP  RH WIND       PRES   REMARKS
LUBBOCK        PTCLDY    77  60  55 E9        30.00R
SNYDER         CLEAR     80  67  62 E6        29.97R
CHILDRESS      PTCLDY    79  61  53 NE5       29.97R
SEMINOLE       CLEAR     81  60  48 SE9       29.99R
$$

PERMIAN BASIN

CITY           SKY/WX    TMP DP  RH WIND       PRES   REMARKS
MIDLAND        CLEAR     83  62  49 SE12      29.95S
ODESSA         CLEAR     82  61  48 SE9       29.96S
WINK           CLEAR     86  61  42 SE13      29.91R
$$

FAR WEST/SOUTHWEST MOUNTAINS/TRANS PECOS

CITY           SKY/WX    TMP DP  RH WIND       PRES   REMARKS
ALPINE         PTCLDY    82  53  37 NE10      30.08S
DRYDEN           N/A     83  69  62 VRB5      29.95R
EL PASO        MOSUNNY   92  19   7 W12G22    29.93S
FORT STOCKTON  PTCLDY    83  59  44 E8        29.94S
GUADALUPE PASS MOSUNNY   76  44  32 E22       30.08S
MARFA          PTCLDY    81  50  34 E18       30.06S
PECOS          CLEAR     85  58  40 CALM      29.91R
$$

DALLAS/FORT WORTH METROPLEX

CITY           SKY/WX    TMP DP  RH WIND       PRES   REMARKS
DFW AIRPORT    MOCLDY    74  66  76 S3        29.94R
FTW MEACHAM    MOCLDY    79  68  69 SE3       29.93R
DAL-EXECUTIVE  MOCLDY    74  69  85 CALM      29.94R
GRAND PRAIRIE  NOT AVBL
ADDISON        NOT AVBL
MESQUITE       CLEAR     77  66  69 CALM      29.95R
LANCASTER      MOCLDY    77  66  68 CALM      29.95R
$$

NORTH CENTRAL TEXAS

CITY           SKY/WX    TMP DP  RH WIND       PRES   REMARKS
SHRMAN/DENISON CLOUDY    74  70  87 W3        29.95R
GAINESVILLE    MOCLDY    75  66  74 CALM      29.97R
BRIDGEPORT     MOCLDY    78  70  76 E3        29.95S
DENTON         MOCLDY    76  70  82 CALM      29.94R
WAXAHACHIE     MOCLDY    76  71  86 CALM      29.95R
GRANBURY       PTCLDY    82  67  61 E5        29.94R
$$

WESTERN NORTH TEXAS

CITY           SKY/WX    TMP DP  RH WIND       PRES   REMARKS
WICHITA FALLS  MOCLDY    79  63  57 SW5       29.92R
VERNON         CLEAR     84  59  43 SE6       29.95R
BRECKENRIDGE   CLEAR     84  67  56 S3        29.92S
COMANCHE       CLOUDY    82  69  64 S5        29.95R
$$

CENTRAL AND SOUTH CENTRAL TEXAS

CITY           SKY/WX    TMP DP  RH WIND       PRES   REMARKS
AUSTIN/BERGSTM PTCLDY    81  70  69 S8        29.93R
WACO           PTCLDY    82  67  60 S6        29.92R
HILLSBORO      MOCLDY    82  64  54 SE3       29.94R
TEMPLE         PTCLDY    81  66  61 SE8       29.92R
KILLEEN-GRAY   CLEAR     82  70  65 SE8       29.93R
FORT HOOD      PTCLDY    83  69  62 SE8       29.92R
GEORGETOWN     CLEAR     84  66  54 S7        29.92R
LAGO VISTA     FAIR      83  66  57 S9        29.96R
SAN MARCOS     NOT AVBL
NEW BRAUNFELS  CLEAR     83  71  67 SE8       29.92R
RANDOLPH AFB   PTCLDY    82  70  67 SE8       29.93R
SAN ANTONIO    PTCLDY    84  69  60 SE10      29.93R
STINSON        PTCLDY    83  70  64 SE7       29.91R
PLEASANTON     NOT AVBL
LA GRANGE      PTCLDY    84  72  67 S3        29.92R
GIDDINGS       CLEAR     82  67  59 S3        29.98R HAZE
$$

EAST TEXAS

CITY           SKY/WX    TMP DP  RH WIND       PRES   REMARKS
PARIS          CLOUDY    72  66  83 W9        29.92R
CLARKSVILLE    NOT AVBL
TYLER          CLEAR     79  67  66 SW6       29.94R
LONGVIEW       PTCLDY    81  68  64 SW6       29.93R
PALESTINE      PTCLDY    79  70  73 CALM      29.95R
NACOGDOCHES    CLEAR     79  70  73 S5        29.94R
$$

TEXAS HILL COUNTRY AND EDWARDS PLATEAU

CITY           SKY/WX    TMP DP  RH WIND       PRES   REMARKS
LLANO          CLEAR     82  70  65 S7        29.97R
HORSESHOE BAY  FAIR      83  68  60 S5        29.94R
KERRVILLE      PTCLDY    78  71  78 S6        29.97S
FREDERICKSBRG  PTCLDY    78  66  67 S7        29.97R
ROCKSPRINGS    PTCLDY    77  66  69 S8        30.00R
HONDO          MOCLDY    82  71  69 S9        29.94S
UVALDE         PTCLDY    80  72  76 SE5       29.92S
DEL RIO        CLOUDY    83  70  64 SE10      29.89R
$$

SOUTHEAST TEXAS

CITY           SKY/WX    TMP DP  RH WIND       PRES   REMARKS
COLLEGE STN    CLEAR     84  69  60 S5        29.93R
CALDWELL       CLEAR     82  72  69 CALM      29.97R
CROCKETT       NOT AVBL
BRENHAM        CLEAR     85  71  62 S6        29.95R
HUNTSVILLE     CLEAR     84  68  58 S7        29.94S
CONROE         CLEAR     80  69  69 E3        29.95R
HOUSTON BUSH   PTCLDY    84  66  54 S6        29.94S
HOUSTON HOBBY  PTCLDY    82  67  60 S6        29.95R
PERLAND        CLEAR     83  71  67 SE8       29.97S
WHARTON        CLEAR     80  71  75 S6        29.96R
$$

THE UPPER TEXAS COAST

CITY           SKY/WX    TMP DP  RH WIND       PRES   REMARKS
ORANGE         PTCLDY    80  73  80 CALM      30.00R
PORT ARTHUR    PTCLDY    80  73  79 S7        29.98R
GALVESTON      PTCLDY    80  75  84 S9        29.98R
ANGLETON       CLEAR     78  72  81 S6        29.96R
BAY CITY       CLEAR     80  70  70 CALM      29.95S
$$

TEXAS COASTAL BEND, RIO GRANDE PLAINS DEEP SOUTH TEXAS

CITY           SKY/WX    TMP DP  RH WIND       PRES   REMARKS
VICTORIA       CLEAR     81  70  69 S9        29.94S
BEEVILLE       FAIR      80  71  74 SE7       29.93R
ROCKPORT       CLEAR     82  71  69 SE12      29.93R
PORT ARANSAS   PTCLDY    80  73  78 SE12G18   29.93S
PORT LAVACA    CLEAR     81  70  69 SE6       29.94R
CORPUS CHRISTI PTCLDY    81  72  74 SE14      29.93R
KINGSVILLE NAS CLEAR     80  75  84 SE10      29.93R
COTULLA        PTCLDY    84  72  67 SE8       29.89S
LAREDO         MOCLDY    86  70  58 SE10      29.90R
BROWNSVILLE    PTCLDY    81  75  82 SE10      29.92R
PORT ISABEL    PTCLDY    80  74  81 E10       29.92R
HEBBRONVILLE     N/A     82  70  65 E6        29.92S
MCALLEN        CLEAR     85  73  67 SE10      29.91R
WESLACO        CLEAR     83  72  70 SE6       29.91R
FALFURRIAS     CLEAR     82  74  75 E10       29.91R
EDINBURG       CLEAR     84  73  68 SE8       29.91R
$$



USA.gov is the U.S. government's official web portal to all federal, state and local government web resources and services.